Location: ?????
(31.8092°N, 35.2590°E)
Time: 01:33:45
(UTC+00:00)

Cosmos 1674 Rocket - Pass Details

Date: 20 June 2021
Orbit: 602 x 630 km, 82.5° (Epoch: 25 July)

Event Time Altitude Azimuth Distance (km) Brightness Sun altitude
Rises 17:34:55 0° 194° (SSW) 2,890 6.8 -9.4°
Reaches altitude 10° 17:37:11 10° 198° (SSW) 1,983 6.0 -9.8°
Maximum altitude 17:41:30 57° 277° (W) 728 4.3 -10.5°
Drops below altitude 10° 17:45:49 10° 357° (N) 1,978 6.7 -11.3°
Sets 17:48:04 0° 1° (N) 2,882 7.5 -11.6°
